HK4RAU-60 Weather Reports


time (UTC)temp
C
wind
direction
speed
KPH
gust
KPH
rain 1hr
cm
rain 24hr
cm
rain mn
cm
humidity
%
barometer
mb
20260507053028 15 260 6.4 0.0 0.00 0.00 0.00 83 1017.0
20260507052416 17 260 6.4 0.0 0.00 0.00 0.00 83 1018.0
20260507052104 17 260 6.4 0.0 0.00 0.00 0.00 83 1018.0
20260507051802 19 260 6.4 0.0 0.00 0.00 0.00 83 1018.0
20260507051455 16 320 9.7 6.4 0.00 0.00 0.00 81 1018.0
20260507045820 16 320 9.7 6.4 0.00 0.00 0.00 82 1018.0
20260507045518 16 320 9.7 6.4 0.00 0.00 0.00 82 1018.0
20260507044850 16 320 9.7 6.4 0.00 0.00 0.00 82 1018.0
20260507044549 16 320 9.7 6.4 0.00 0.00 0.00 82 1018.0
20260507044246 16 320 9.7 6.4 0.00 0.00 0.00 82 1018.0
20260507043943 16 319 9.7 6.4 0.00 0.00 0.00 81 1018.0
20260507043631 16 320 9.7 6.4 0.00 0.00 0.00 82 1018.0
20260507043330 16 319 9.7 6.4 0.00 0.00 0.00 81 1018.0
20260507043023 16 319 9.7 6.4 0.00 0.00 0.00 81 1018.0
20260507042722 16 319 9.7 6.4 0.00 0.00 0.00 81 1018.0
20260507042420 16 319 9.7 6.4 0.00 0.00 0.00 81 1018.0
20260507042109 16 260 4.8 0.0 0.00 0.00 0.00 83 1018.0
20260507041500 16 319 9.7 6.4 0.00 0.00 0.00 81 1018.0
20260507041154 16 260 4.8 0.0 0.00 0.00 0.00 83 1018.0
20260507040847 18 260 4.8 0.0 0.00 0.00 0.00 83 1018.0
20260507040544 18 260 4.8 0.0 0.00 0.00 0.00 83 1018.0
20260507040238 20 260 4.8 0.0 0.00 0.00 0.00 83 1018.0
20260507035926 20 260 4.8 0.0 0.00 0.00 0.00 83 1018.0
20260507035620 20 260 4.8 0.0 0.00 0.00 0.00 83 1018.0
20260507035318 16 260 4.8 0.0 0.00 0.00 0.00 83 1018.0
20260507035012 16 260 4.8 0.0 0.00 0.00 0.00 83 1018.0
20260507034707 16 260 4.8 0.0 0.00 0.00 0.00 83 1018.0
20260507034401 18 260 4.8 0.0 0.00 0.00 0.00 83 1018.0
20260507034058 16 260 4.8 0.0 0.00 0.00 0.00 83 1018.0
20260507033757 18 260 4.8 0.0 0.00 0.00 0.00 83 1017.0
20260507033449 18 260 4.8 0.0 0.00 0.00 0.00 83 1018.0
20260507033143 20 260 4.8 0.0 0.00 0.00 0.00 83 1017.0
20260507032831 18 260 4.8 0.0 0.00 0.00 0.00 83 1017.0
20260507032525 20 260 4.8 0.0 0.00 0.00 0.00 83 1017.0
20260507032218 16 260 4.8 0.0 0.00 0.00 0.00 83 1017.0
20260507031911 20 260 4.8 0.0 0.00 0.00 0.00 83 1017.0
20260507031609 18 260 4.8 0.0 0.00 0.00 0.00 83 1017.0
20260507031303 20 260 4.8 0.0 0.00 0.00 0.00 83 1017.0
20260507031001 17 260 4.8 0.0 0.00 0.00 0.00 88 1017.0
20260507030700 19 0 0.0 0.0 0.00 0.00 0.00 88 1018.0
20260507030359 19 0 0.0 0.0 0.00 0.00 0.00 88 1018.0
20260507030052 17 0 0.0 0.0 0.00 0.00 0.00 88 1018.0
20260507025751 19 0 0.0 0.0 0.00 0.00 0.00 88 1018.0
20260507025444 17 0 0.0 0.0 0.00 0.00 0.00 88 1018.0
20260507025138 19 0 0.0 0.0 0.00 0.00 0.00 88 1018.0
20260507024836 19 0 0.0 0.0 0.00 0.00 0.00 88 1018.0
20260507024535 17 0 0.0 0.0 0.00 0.00 0.00 88 1018.0
20260507024234 19 0 0.0 0.0 0.00 0.00 0.00 88 1016.0
20260507023932 19 0 0.0 0.0 0.00 0.00 0.00 88 1016.0
20260507023631 19 0 0.0 0.0 0.00 0.00 0.00 88 1016.0
20260507023324 19 0 0.0 0.0 0.00 0.00 0.00 88 1016.0
20260507023018 17 0 0.0 0.0 0.00 0.00 0.00 88 1016.0
20260507022715 17 0 0.0 0.0 0.00 0.00 0.00 88 1016.0
20260507021859 19 0 0.0 0.0 0.00 0.00 0.00 88 1016.0
20260507021557 19 0 0.0 0.0 0.00 0.00 0.00 88 1016.0
20260507021254 16 0 0.0 0.0 0.00 0.00 0.00 78 1016.0
20260507020952 18 0 0.0 0.0 0.00 0.00 0.00 78 1016.0
20260507020649 18 0 0.0 0.0 0.00 0.00 0.00 78 1016.0
20260507020346 20 0 0.0 0.0 0.00 0.00 0.00 78 1017.0
20260507020044 20 0 0.0 0.0 0.00 0.00 0.00 78 1017.0
20260507015736 20 0 0.0 0.0 0.00 0.00 0.00 78 1017.0
20260507015432 20 0 0.0 0.0 0.00 0.00 0.00 78 1017.0
20260507014823 16 0 0.0 0.0 0.00 0.00 0.00 78 1017.0
20260507014516 18 0 0.0 0.0 0.00 0.00 0.00 78 1017.0
20260507014215 20 0 0.0 0.0 0.00 0.00 0.00 78 1017.0
20260507013912 16 0 0.0 0.0 0.00 0.00 0.00 78 1017.0
20260507013608 18 0 0.0 0.0 0.00 0.00 0.00 78 1015.0
20260507013306 18 0 0.0 0.0 0.00 0.00 0.00 78 1015.0
20260507013003 18 0 0.0 0.0 0.00 0.00 0.00 78 1015.0
20260507012702 20 0 0.0 0.0 0.00 0.00 0.00 78 1015.0
20260507012401 18 0 0.0 0.0 0.00 0.00 0.00 78 1015.0
20260507012052 18 0 0.0 0.0 0.00 0.00 0.00 78 1015.0
20260507011749 18 0 0.0 0.0 0.00 0.00 0.00 78 1015.0
20260507011447 18 0 0.0 0.0 0.00 0.00 0.00 78 1015.0
20260507011145 20 0 0.0 0.0 0.00 0.00 0.00 78 1015.0
20260507010844 18 0 3.2 0.0 0.00 0.00 0.00 69 1016.0
20260507010542 18 0 3.2 0.0 0.00 0.00 0.00 69 1016.0
20260507010240 22 0 3.2 0.0 0.00 0.00 0.00 69 1015.0
20260507005933 18 0 3.2 0.0 0.00 0.00 0.00 69 1016.0
20260507005632 18 0 3.2 0.0 0.00 0.00 0.00 69 1016.0
20260507005325 20 0 3.2 0.0 0.00 0.00 0.00 69 1015.0
20260507005017 20 0 3.2 0.0 0.00 0.00 0.00 69 1015.0
20260507004715 20 0 3.2 0.0 0.00 0.00 0.00 69 1015.0
20260507004412 22 0 3.2 0.0 0.00 0.00 0.00 69 1015.0
20260507004106 22 0 3.2 0.0 0.00 0.00 0.00 69 1015.0
20260507003805 18 0 3.2 0.0 0.00 0.00 0.00 69 1015.0
20260507003503 18 0 3.2 0.0 0.00 0.00 0.00 69 1015.0
20260507003201 20 0 3.2 0.0 0.00 0.00 0.00 69 1014.0
20260507002854 20 0 3.2 0.0 0.00 0.00 0.00 69 1014.0
20260507002552 20 0 3.2 0.0 0.00 0.00 0.00 69 1014.0
20260507002246 20 0 3.2 0.0 0.00 0.00 0.00 69 1014.0
20260507001942 22 0 3.2 0.0 0.00 0.00 0.00 69 1014.0
20260507001640 20 0 3.2 0.0 0.00 0.00 0.00 69 1014.0
20260507001338 22 0 3.2 0.0 0.00 0.00 0.00 69 1014.0
20260507001037 18 150 6.4 0.0 0.00 0.00 0.00 69 1014.0
20260507000735 18 150 6.4 0.0 0.00 0.00 0.00 69 1014.0
20260507000435 20 150 6.4 0.0 0.00 0.00 0.00 69 1014.0
20260507000132 22 150 6.4 0.0 0.00 0.00 0.00 69 1015.0
20260506235830 22 150 6.4 0.0 0.00 0.00 0.00 69 1015.0
20260506235520 20 150 6.4 0.0 0.00 0.00 0.00 69 1015.0
20260506235214 22 150 6.4 0.0 0.00 0.00 0.00 69 1015.0
20260506234908 18 150 6.4 0.0 0.00 0.00 0.00 69 1014.0
20260506234606 20 150 6.4 0.0 0.00 0.00 0.00 69 1014.0
20260506234305 22 150 6.4 0.0 0.00 0.00 0.00 69 1014.0
20260506233958 18 150 6.4 0.0 0.00 0.00 0.00 69 1014.0
20260506233657 20 150 6.4 0.0 0.00 0.00 0.00 69 1014.0
20260506233355 22 150 6.4 0.0 0.00 0.00 0.00 69 1013.0
20260506233048 22 150 6.4 0.0 0.00 0.00 0.00 69 1014.0
20260506232746 20 160 12.9 0.0 0.00 0.00 0.00 65 1013.0
20260506232445 22 150 6.4 0.0 0.00 0.00 0.00 69 1013.0
20260506232142 20 160 12.9 0.0 0.00 0.00 0.00 65 1013.0
20260506231835 22 160 12.9 0.0 0.00 0.00 0.00 65 1013.0
20260506231533 22 160 12.9 0.0 0.00 0.00 0.00 65 1013.0
20260506231229 22 160 12.9 0.0 0.00 0.00 0.00 65 1013.0
20260506230927 24 160 12.9 0.0 0.00 0.00 0.00 65 1013.0
20260506230314 24 160 12.9 0.0 0.00 0.00 0.00 65 1013.0
20260506225945 24 160 12.9 0.0 0.00 0.00 0.00 65 1013.0
20260506225638 24 160 12.9 0.0 0.00 0.00 0.00 65 1013.0
20260506225334 20 160 12.9 0.0 0.00 0.00 0.00 65 1013.0
20260506225026 24 160 12.9 0.0 0.00 0.00 0.00 65 1013.0
20260506224708 20 160 12.9 0.0 0.00 0.00 0.00 65 1013.0
20260506224402 22 160 12.9 0.0 0.00 0.00 0.00 65 1013.0
20260506224059 22 160 12.9 0.0 0.00 0.00 0.00 65 1013.0
20260506223756 22 160 12.9 0.0 0.00 0.00 0.00 65 1013.0
20260506223446 22 160 12.9 0.0 0.00 0.00 0.00 65 1012.0
20260506223140 24 160 12.9 0.0 0.00 0.00 0.00 65 1012.0
20260506222838 22 160 12.9 0.0 0.00 0.00 0.00 65 1012.0
20260506222534 22 160 12.9 0.0 0.00 0.00 0.00 65 1012.0
20260506222228 24 160 12.9 0.0 0.00 0.00 0.00 65 1012.0
20260506221926 22 160 12.9 0.0 0.00 0.00 0.00 65 1012.0
20260506221623 21 160 12.9 0.0 0.00 0.00 0.00 61 1012.0
20260506221320 24 160 12.9 0.0 0.00 0.00 0.00 65 1012.0
20260506221019 24 160 12.9 0.0 0.00 0.00 0.00 65 1012.0
20260506220717 21 160 12.9 0.0 0.00 0.00 0.00 61 1012.0
20260506220409 23 160 14.5 0.0 0.00 0.00 0.00 61 1012.0
20260506220107 23 160 14.5 0.0 0.00 0.00 0.00 61 1012.0
20260506215804 21 160 14.5 0.0 0.00 0.00 0.00 61 1012.0
20260506215502 23 160 14.5 0.0 0.00 0.00 0.00 61 1012.0
20260506215200 25 160 14.5 0.0 0.00 0.00 0.00 61 1012.0
20260506214853 21 160 14.5 0.0 0.00 0.00 0.00 61 1012.0
20260506214546 21 160 14.5 0.0 0.00 0.00 0.00 61 1012.0
20260506214245 23 160 14.5 0.0 0.00 0.00 0.00 61 1012.0
20260506213939 21 160 14.5 0.0 0.00 0.00 0.00 61 1012.0
20260506213637 23 160 14.5 0.0 0.00 0.00 0.00 61 1012.0
20260506213331 23 160 14.5 0.0 0.00 0.00 0.00 61 1012.0
20260506213023 25 160 14.5 0.0 0.00 0.00 0.00 61 1012.0
20260506212721 21 160 14.5 0.0 0.00 0.00 0.00 61 1012.0
20260506212419 23 160 14.5 0.0 0.00 0.00 0.00 61 1012.0
20260506212113 21 160 14.5 0.0 0.00 0.00 0.00 61 1012.0
20260506211811 23 160 14.5 0.0 0.00 0.00 0.00 61 1012.0
20260506211508 23 160 14.5 0.0 0.00 0.00 0.00 61 1012.0
20260506211200 25 160 14.5 0.0 0.00 0.00 0.00 61 1012.0
20260506210857 25 160 14.5 0.0 0.00 0.00 0.00 61 1012.0
20260506210550 22 150 14.5 0.0 0.00 0.00 0.00 58 1013.0
20260506210248 24 150 14.5 0.0 0.00 0.00 0.00 58 1013.0
20260506205939 22 150 14.5 0.0 0.00 0.00 0.00 58 1013.0
20260506205633 24 150 14.5 0.0 0.00 0.00 0.00 58 1013.0
20260506205330 24 150 14.5 0.0 0.00 0.00 0.00 58 1013.0
20260506205022 26 150 14.5 0.0 0.00 0.00 0.00 58 1013.0
20260506204714 26 150 14.5 0.0 0.00 0.00 0.00 58 1013.0
20260506204413 22 150 14.5 0.0 0.00 0.00 0.00 58 1013.0
20260506204112 22 150 14.5 0.0 0.00 0.00 0.00 58 1013.0
20260506203809 22 150 14.5 0.0 0.00 0.00 0.00 58 1013.0
20260506203507 22 150 14.5 0.0 0.00 0.00 0.00 58 1013.0
20260506203200 24 150 14.5 0.0 0.00 0.00 0.00 58 1013.0
20260506202858 24 150 14.5 0.0 0.00 0.00 0.00 58 1013.0
20260506202556 26 150 14.5 0.0 0.00 0.00 0.00 58 1013.0
20260506202249 26 150 14.5 0.0 0.00 0.00 0.00 58 1013.0
20260506201943 22 150 14.5 0.0 0.00 0.00 0.00 58 1013.0
20260506201635 24 150 14.5 0.0 0.00 0.00 0.00 58 1012.0
20260506201334 24 150 14.5 0.0 0.00 0.00 0.00 58 1012.0
20260506201029 26 150 14.5 0.0 0.00 0.00 0.00 58 1012.0
20260506200718 22 160 12.9 0.0 0.00 0.00 0.00 58 1013.0
20260506200411 26 160 12.9 0.0 0.00 0.00 0.00 58 1012.0
20260506200105 22 160 12.9 0.0 0.00 0.00 0.00 58 1013.0
20260506195758 22 160 12.9 0.0 0.00 0.00 0.00 58 1013.0
20260506195452 24 160 12.9 0.0 0.00 0.00 0.00 58 1013.0
20260506195150 26 160 12.9 0.0 0.00 0.00 0.00 58 1013.0
20260506194845 26 160 12.9 0.0 0.00 0.00 0.00 58 1013.0
20260506194538 22 160 12.9 0.0 0.00 0.00 0.00 58 1013.0
20260506194227 26 160 12.9 0.0 0.00 0.00 0.00 58 1013.0
20260506193926 22 160 12.9 0.0 0.00 0.00 0.00 58 1013.0
20260506193619 24 160 12.9 0.0 0.00 0.00 0.00 58 1013.0
20260506193313 26 160 12.9 0.0 0.00 0.00 0.00 58 1013.0
20260506193006 22 160 12.9 0.0 0.00 0.00 0.00 58 1013.0
20260506192704 24 160 12.9 0.0 0.00 0.00 0.00 58 1013.0
20260506192358 24 160 12.9 0.0 0.00 0.00 0.00 58 1013.0
20260506192052 26 160 12.9 0.0 0.00 0.00 0.00 58 1013.0
20260506191745 26 160 12.9 0.0 0.00 0.00 0.00 58 1013.0
20260506191439 23 160 12.9 0.0 0.00 0.00 0.00 61 1013.0
20260506191132 23 160 12.9 0.0 0.00 0.00 0.00 61 1013.0
20260506190830 25 150 12.9 0.0 0.00 0.00 0.00 61 1013.0
20260506190524 25 150 12.9 0.0 0.00 0.00 0.00 61 1013.0
20260506190217 23 150 12.9 0.0 0.00 0.00 0.00 61 1013.0
20260506185910 23 150 12.9 0.0 0.00 0.00 0.00 61 1013.0
20260506185604 23 150 12.9 0.0 0.00 0.00 0.00 61 1013.0
20260506185256 25 150 12.9 0.0 0.00 0.00 0.00 61 1013.0
20260506184944 23 150 12.9 0.0 0.00 0.00 0.00 61 1013.0
20260506184637 25 150 12.9 0.0 0.00 0.00 0.00 61 1013.0
20260506184325 25 150 12.9 0.0 0.00 0.00 0.00 61 1013.0
20260506183710 23 150 12.9 0.0 0.00 0.00 0.00 61 1013.0
20260506183403 25 150 12.9 0.0 0.00 0.00 0.00 61 1013.0
20260506183102 23 150 12.9 0.0 0.00 0.00 0.00 61 1014.0
20260506182755 23 150 12.9 0.0 0.00 0.00 0.00 61 1014.0
20260506182453 25 150 12.9 0.0 0.00 0.00 0.00 61 1014.0
20260506182152 23 150 12.9 0.0 0.00 0.00 0.00 61 1014.0
20260506181850 25 150 12.9 0.0 0.00 0.00 0.00 61 1014.0
20260506181539 23 150 12.9 0.0 0.00 0.00 0.00 61 1014.0
20260506181232 25 150 12.9 0.0 0.00 0.00 0.00 61 1014.0
20260506180929 22 150 12.9 0.0 0.00 0.00 0.00 65 1014.0
20260506180628 22 150 12.9 0.0 0.00 0.00 0.00 65 1014.0
20260506180318 24 160 9.7 0.0 0.00 0.00 0.00 65 1014.0
20260506180011 22 160 9.7 0.0 0.00 0.00 0.00 65 1014.0
20260506175705 24 160 9.7 0.0 0.00 0.00 0.00 65 1014.0
20260506175353 24 160 9.7 0.0 0.00 0.00 0.00 65 1014.0
20260506175047 22 160 9.7 0.0 0.00 0.00 0.00 65 1014.0
20260506174745 24 160 9.7 0.0 0.00 0.00 0.00 65 1014.0
20260506174432 24 160 9.7 0.0 0.00 0.00 0.00 65 1014.0
20260506174130 24 160 9.7 0.0 0.00 0.00 0.00 65 1014.0
20260506173824 22 160 9.7 0.0 0.00 0.00 0.00 65 1014.0
20260506173521 22 160 9.7 0.0 0.00 0.00 0.00 65 1014.0
20260506173214 22 160 9.7 0.0 0.00 0.00 0.00 65 1014.0
20260506172910 24 160 9.7 0.0 0.00 0.00 0.00 65 1016.0
20260506172604 24 160 9.7 0.0 0.00 0.00 0.00 65 1016.0
20260506172257 24 160 9.7 0.0 0.00 0.00 0.00 65 1016.0
20260506171950 22 160 9.7 0.0 0.00 0.00 0.00 65 1016.0
20260506171644 24 160 9.7 0.0 0.00 0.00 0.00 65 1015.0
20260506171337 24 160 9.7 0.0 0.00 0.00 0.00 65 1015.0
20260506171030 24 160 9.7 0.0 0.00 0.00 0.00 65 1015.0
20260506170723 24 160 9.7 0.0 0.00 0.00 0.00 65 1015.0
20260506170416 22 220 4.8 0.0 0.00 0.00 0.00 65 1015.0
20260506170110 24 220 4.8 0.0 0.00 0.00 0.00 65 1015.0
20260506165804 22 220 4.8 0.0 0.00 0.00 0.00 65 1015.0
20260506165501 22 220 4.8 0.0 0.00 0.00 0.00 65 1015.0
20260506165150 24 220 4.8 0.0 0.00 0.00 0.00 65 1015.0
20260506164846 22 220 4.8 0.0 0.00 0.00 0.00 65 1015.0
20260506164536 22 220 4.8 0.0 0.00 0.00 0.00 65 1015.0
20260506164230 24 220 4.8 0.0 0.00 0.00 0.00 65 1015.0
20260506163924 24 220 4.8 0.0 0.00 0.00 0.00 65 1015.0
20260506163622 24 220 4.8 0.0 0.00 0.00 0.00 65 1015.0
20260506163319 22 220 4.8 0.0 0.00 0.00 0.00 65 1015.0
20260506163018 24 220 4.8 0.0 0.00 0.00 0.00 65 1017.0
20260506162709 24 220 4.8 0.0 0.00 0.00 0.00 65 1017.0
20260506162403 22 220 4.8 0.0 0.00 0.00 0.00 65 1016.0
20260506162051 22 220 4.8 0.0 0.00 0.00 0.00 65 1016.0
20260506161749 24 220 4.8 0.0 0.00 0.00 0.00 65 1016.0
20260506161440 22 220 4.8 0.0 0.00 0.00 0.00 65 1016.0
20260506161135 22 220 4.8 0.0 0.00 0.00 0.00 65 1016.0
20260506160823 24 220 4.8 0.0 0.00 0.00 0.00 65 1016.0
20260506160522 21 160 8.0 0.0 0.00 0.00 0.00 78 1016.0
20260506160215 21 160 8.0 0.0 0.00 0.00 0.00 78 1016.0
20260506155913 21 160 8.0 0.0 0.00 0.00 0.00 78 1016.0
20260506155612 21 160 8.0 0.0 0.00 0.00 0.00 78 1016.0
20260506155310 21 160 8.0 0.0 0.00 0.00 0.00 78 1016.0
20260506155001 21 160 8.0 0.0 0.00 0.00 0.00 78 1016.0
20260506154700 21 160 8.0 0.0 0.00 0.00 0.00 78 1016.0
20260506154350 21 160 8.0 0.0 0.00 0.00 0.00 78 1016.0
20260506154044 21 160 8.0 0.0 0.00 0.00 0.00 78 1016.0
20260506153738 21 160 8.0 0.0 0.00 0.00 0.00 78 1016.0
20260506153435 21 160 8.0 0.0 0.00 0.00 0.00 78 1016.0
20260506153129 21 160 8.0 0.0 0.00 0.00 0.00 78 1017.0
20260506152821 21 160 8.0 0.0 0.00 0.00 0.00 78 1017.0
20260506152515 21 160 8.0 0.0 0.00 0.00 0.00 78 1017.0
20260506152205 21 160 8.0 0.0 0.00 0.00 0.00 78 1017.0
20260506151856 21 160 8.0 0.0 0.00 0.00 0.00 78 1017.0
20260506151555 20 160 8.0 0.0 0.00 0.00 0.00 69 1017.0
20260506151253 20 160 8.0 0.0 0.00 0.00 0.00 69 1017.0
20260506150946 20 160 8.0 0.0 0.00 0.00 0.00 69 1017.0
20260506150640 20 160 8.0 0.0 0.00 0.00 0.00 69 1017.0
20260506150337 22 0 3.2 0.0 0.00 0.00 0.00 69 1017.0
20260506150031 20 0 3.2 0.0 0.00 0.00 0.00 69 1017.0
20260506145719 22 0 3.2 0.0 0.00 0.00 0.00 69 1017.0
20260506145414 22 0 3.2 0.0 0.00 0.00 0.00 69 1017.0
20260506145108 20 0 3.2 0.0 0.00 0.00 0.00 69 1017.0
20260506144807 20 0 3.2 0.0 0.00 0.00 0.00 69 1017.0
20260506144506 22 0 3.2 0.0 0.00 0.00 0.00 69 1017.0
20260506144156 20 0 3.2 0.0 0.00 0.00 0.00 69 1017.0
20260506143852 20 0 3.2 0.0 0.00 0.00 0.00 69 1017.0
20260506143545 22 0 3.2 0.0 0.00 0.00 0.00 69 1017.0
20260506143233 22 0 3.2 0.0 0.00 0.00 0.00 69 1017.0
20260506142932 22 0 3.2 0.0 0.00 0.00 0.00 69 1017.0
20260506142630 20 0 3.2 0.0 0.00 0.00 0.00 69 1017.0
20260506142323 22 0 3.2 0.0 0.00 0.00 0.00 69 1017.0
20260506142017 19 0 3.2 0.0 0.00 0.00 0.00 78 1017.0
20260506141709 19 0 3.2 0.0 0.00 0.00 0.00 78 1017.0
20260506141401 22 0 3.2 0.0 0.00 0.00 0.00 69 1017.0
20260506141054 19 0 3.2 0.0 0.00 0.00 0.00 78 1017.0
20260506140748 19 0 3.2 0.0 0.00 0.00 0.00 78 1017.0
20260506140446 21 0 3.2 0.0 0.00 0.00 0.00 78 1017.0
20260506140144 21 0 3.2 0.0 0.00 0.00 0.00 78 1017.0
20260506135842 19 0 3.2 0.0 0.00 0.00 0.00 78 1017.0
20260506135536 19 0 3.2 0.0 0.00 0.00 0.00 78 1017.0
20260506135229 21 0 3.2 0.0 0.00 0.00 0.00 78 1017.0
20260506134927 21 0 3.2 0.0 0.00 0.00 0.00 78 1017.0
20260506134625 19 0 3.2 0.0 0.00 0.00 0.00 78 1017.0
20260506134324 19 0 3.2 0.0 0.00 0.00 0.00 78 1017.0
20260506134018 19 0 3.2 0.0 0.00 0.00 0.00 78 1017.0
20260506133716 19 0 3.2 0.0 0.00 0.00 0.00 78 1017.0
20260506133407 19 0 3.2 0.0 0.00 0.00 0.00 78 1017.0
20260506133055 21 0 3.2 0.0 0.00 0.00 0.00 78 1017.0
20260506132754 19 0 3.2 0.0 0.00 0.00 0.00 78 1017.0
20260506132446 19 0 3.2 0.0 0.00 0.00 0.00 78 1017.0
20260506132144 21 0 3.2 0.0 0.00 0.00 0.00 78 1017.0
20260506131837 21 0 3.2 0.0 0.00 0.00 0.00 78 1017.0
20260506131535 21 0 3.2 0.0 0.00 0.00 0.00 78 1017.0
20260506131229 19 0 3.2 0.0 0.00 0.00 0.00 83 1017.0
20260506130922 21 0 3.2 0.0 0.00 0.00 0.00 78 1017.0
20260506130620 19 0 3.2 0.0 0.00 0.00 0.00 83 1017.0
20260506130318 19 0 3.2 0.0 0.00 0.00 0.00 83 1017.0
20260506130017 19 0 3.2 0.0 0.00 0.00 0.00 83 1017.0
20260506125707 19 0 3.2 0.0 0.00 0.00 0.00 83 1017.0
20260506125401 19 0 3.2 0.0 0.00 0.00 0.00 83 1017.0
20260506125053 19 0 3.2 0.0 0.00 0.00 0.00 83 1017.0
20260506124450 19 0 3.2 0.0 0.00 0.00 0.00 83 1017.0
20260506124148 19 0 3.2 0.0 0.00 0.00 0.00 83 1017.0
20260506123842 19 0 3.2 0.0 0.00 0.00 0.00 83 1017.0
20260506123536 19 0 3.2 0.0 0.00 0.00 0.00 83 1017.0
20260506123227 19 0 3.2 0.0 0.00 0.00 0.00 83 1017.0
20260506122917 17 0 3.2 0.0 0.00 0.00 0.00 83 1017.0
20260506122606 19 0 3.2 0.0 0.00 0.00 0.00 83 1017.0
20260506122257 17 0 3.2 0.0 0.00 0.00 0.00 83 1017.0
20260506121949 17 0 3.2 0.0 0.00 0.00 0.00 83 1017.0
20260506121645 19 0 3.2 0.0 0.00 0.00 0.00 83 1017.0
20260506121341 18 0 3.2 0.0 0.00 0.00 0.00 73 1017.0
20260506121038 19 0 3.2 0.0 0.00 0.00 0.00 83 1017.0
20260506120731 20 0 3.2 0.0 0.00 0.00 0.00 73 1017.0
20260506120427 18 0 3.2 0.0 0.00 0.00 0.00 73 1017.0
20260506120120 20 0 3.2 0.0 0.00 0.00 0.00 73 1017.0
20260506115816 20 0 3.2 0.0 0.00 0.00 0.00 73 1017.0
20260506115510 18 0 3.2 0.0 0.00 0.00 0.00 73 1017.0
20260506115203 18 0 3.2 0.0 0.00 0.00 0.00 73 1017.0
20260506114901 20 0 3.2 0.0 0.00 0.00 0.00 73 1017.0
20260506114554 20 0 3.2 0.0 0.00 0.00 0.00 73 1017.0
20260506114253 20 0 3.2 0.0 0.00 0.00 0.00 73 1017.0
20260506113946 20 0 3.2 0.0 0.00 0.00 0.00 73 1017.0
20260506113635 18 0 3.2 0.0 0.00 0.00 0.00 73 1017.0
20260506113328 20 0 3.2 0.0 0.00 0.00 0.00 73 1017.0
20260506113027 17 260 6.4 0.0 0.00 0.00 0.00 78 1017.0
20260506112724 17 260 6.4 0.0 0.00 0.00 0.00 78 1017.0
20260506112418 15 260 6.4 0.0 0.00 0.00 0.00 78 1017.0
20260506112110 17 260 6.4 0.0 0.00 0.00 0.00 78 1017.0
20260506111808 17 260 6.4 0.0 0.00 0.00 0.00 78 1017.0
20260506111505 19 260 6.4 0.0 0.00 0.00 0.00 78 1017.0
20260506111202 15 260 6.4 0.0 0.00 0.00 0.00 78 1017.0
20260506110853 17 260 6.4 0.0 0.00 0.00 0.00 78 1017.0
20260506110547 19 260 6.4 0.0 0.00 0.00 0.00 78 1017.0
20260506110240 15 260 6.4 0.0 0.00 0.00 0.00 78 1017.0
20260506105934 15 260 6.4 0.0 0.00 0.00 0.00 78 1017.0
20260506105632 15 260 6.4 0.0 0.00 0.00 0.00 78 1017.0
20260506105330 15 260 6.4 0.0 0.00 0.00 0.00 78 1017.0
20260506105024 17 260 6.4 0.0 0.00 0.00 0.00 78 1017.0
20260506104723 17 260 6.4 0.0 0.00 0.00 0.00 78 1017.0
20260506104416 17 260 6.4 0.0 0.00 0.00 0.00 78 1017.0
20260506104110 17 260 6.4 0.0 0.00 0.00 0.00 78 1017.0
20260506103506 19 260 6.4 0.0 0.00 0.00 0.00 78 1016.0
20260506103203 17 260 6.4 0.0 0.00 0.00 0.00 78 1017.0
20260506102856 19 260 6.4 0.0 0.00 0.00 0.00 78 1016.0
20260506102547 15 260 6.4 0.0 0.00 0.00 0.00 78 1016.0
20260506102244 17 260 6.4 0.0 0.00 0.00 0.00 78 1016.0
20260506101942 15 260 6.4 0.0 0.00 0.00 0.00 78 1016.0
20260506101633 17 260 6.4 0.0 0.00 0.00 0.00 78 1016.0
20260506101327 19 260 6.4 0.0 0.00 0.00 0.00 78 1016.0
20260506101019 16 280 12.9 0.0 0.00 0.00 0.00 68 1016.0
20260506100713 19 260 6.4 0.0 0.00 0.00 0.00 78 1016.0
20260506100405 16 280 12.9 0.0 0.00 0.00 0.00 68 1016.0
20260506100058 18 280 12.9 0.0 0.00 0.00 0.00 68 1016.0
20260506095755 20 280 12.9 0.0 0.00 0.00 0.00 68 1016.0
20260506095448 18 280 12.9 0.0 0.00 0.00 0.00 68 1016.0
20260506095142 20 280 12.9 0.0 0.00 0.00 0.00 68 1016.0
20260506094835 16 280 12.9 0.0 0.00 0.00 0.00 68 1016.0
20260506094529 16 280 12.9 0.0 0.00 0.00 0.00 68 1016.0
20260506094227 16 280 12.9 0.0 0.00 0.00 0.00 68 1016.0
20260506093915 16 280 12.9 0.0 0.00 0.00 0.00 68 1016.0
20260506093609 18 280 12.9 0.0 0.00 0.00 0.00 68 1016.0
20260506093301 16 280 12.9 0.0 0.00 0.00 0.00 68 1016.0
20260506092954 18 280 12.9 0.0 0.00 0.00 0.00 68 1016.0
20260506092643 20 280 12.9 0.0 0.00 0.00 0.00 68 1016.0
20260506092335 20 280 12.9 0.0 0.00 0.00 0.00 68 1016.0
20260506092028 16 280 12.9 0.0 0.00 0.00 0.00 68 1016.0
20260506091722 16 280 12.9 0.0 0.00 0.00 0.00 68 1016.0
20260506091415 18 280 12.9 0.0 0.00 0.00 0.00 68 1016.0
20260506091106 18 280 12.9 0.0 0.00 0.00 0.00 68 1016.0
20260506090800 18 280 8.0 0.0 0.00 0.00 0.00 68 1016.0
20260506090453 18 280 12.9 0.0 0.00 0.00 0.00 68 1016.0
20260506090145 20 280 8.0 0.0 0.00 0.00 0.00 68 1016.0
20260506085836 16 280 8.0 0.0 0.00 0.00 0.00 68 1016.0
20260506085528 16 280 8.0 0.0 0.00 0.00 0.00 68 1016.0
20260506085218 20 280 8.0 0.0 0.00 0.00 0.00 68 1016.0
20260506084912 16 280 8.0 0.0 0.00 0.00 0.00 68 1016.0
20260506084610 18 280 8.0 0.0 0.00 0.00 0.00 68 1016.0
20260506084306 18 280 8.0 0.0 0.00 0.00 0.00 68 1016.0
20260506083957 18 280 8.0 0.0 0.00 0.00 0.00 68 1016.0
20260506083655 20 280 8.0 0.0 0.00 0.00 0.00 68 1016.0
20260506083353 16 280 8.0 0.0 0.00 0.00 0.00 68 1016.0
20260506083052 16 280 8.0 0.0 0.00 0.00 0.00 68 1016.0
20260506082750 18 280 8.0 0.0 0.00 0.00 0.00 68 1016.0
20260506082443 18 280 8.0 0.0 0.00 0.00 0.00 68 1016.0
20260506082140 18 280 8.0 0.0 0.00 0.00 0.00 68 1016.0
20260506081838 20 280 8.0 0.0 0.00 0.00 0.00 68 1016.0
20260506081527 15 280 8.0 0.0 0.00 0.00 0.00 73 1016.0
20260506081220 15 280 8.0 0.0 0.00 0.00 0.00 73 1016.0
20260506080908 15 280 8.0 0.0 0.00 0.00 0.00 73 1016.0
20260506080544 17 260 6.4 0.0 0.00 0.00 0.00 73 1016.0
20260506080237 17 260 6.4 0.0 0.00 0.00 0.00 73 1016.0
20260506073450 17 260 6.4 0.0 0.00 0.00 0.00 73 1016.0
20260506073140 17 260 6.4 0.0 0.00 0.00 0.00 73 1016.0
20260506072828 19 260 6.4 0.0 0.00 0.00 0.00 73 1016.0
20260506072521 19 260 6.4 0.0 0.00 0.00 0.00 73 1016.0
20260506072211 16 323 9.7 6.4 0.00 0.00 0.00 81 1016.0
20260506071903 19 260 6.4 0.0 0.00 0.00 0.00 73 1016.0
20260506071556 16 323 9.7 6.4 0.00 0.00 0.00 81 1016.0
20260506070924 16 280 8.0 0.0 0.00 0.00 0.00 68 1016.0
20260506070618 16 280 8.0 0.0 0.00 0.00 0.00 68 1016.0
20260506070310 18 280 8.0 0.0 0.00 0.00 0.00 68 1016.0
20260506062256 15 280 8.0 0.0 0.00 0.00 0.00 64 1017.0
20260506061950 17 280 8.0 0.0 0.00 0.00 0.00 64 1017.0
20260506061643 19 280 8.0 0.0 0.00 0.00 0.00 64 1017.0
20260506061340 19 280 8.0 0.0 0.00 0.00 0.00 64 1017.0
20260506061023 19 280 8.0 0.0 0.00 0.00 0.00 64 1017.0
20260506060721 19 280 8.0 0.0 0.00 0.00 0.00 64 1017.0
20260506060417 21 270 8.0 0.0 0.00 0.00 0.00 64 1017.0
20260506060105 21 270 8.0 0.0 0.00 0.00 0.00 64 1017.0